Peru, IN

3:39 AM EST on November 21, 2017 (GMT -0500)
Grissom Air Reserve Base

Weather History for KGUS - February, 2014

Change the Weather History Date:

Saturday, February 15, 2014

  Actual Average Record
Temperature  
Mean Temperature 10 °F -  
Max Temperature 19 °F 35 °F 57 °F (2005)
Min Temperature 0 °F 23 °F -7 °F (2007)
Degree Days  
Heating Degree Days 56    
Moisture  
Dew Point 11 °F    
Average Humidity 91    
Maximum Humidity 100    
Minimum Humidity 78    
Precipitation  
Precipitation 0.00 in - - ()
Snow  
Snow 0.00 in - - ()
Snow Depth 5.00 in    
Sea Level Pressure  
Sea Level Pressure 30.01 in    
Wind  
Wind Speed 9 mph (WSW)    
Max Wind Speed 13 mph    
Max Gust Speed -    
Visibility 9 miles    
Events Snow    
Averages and records for this station are not official NWS values.
T = Trace of Precipitation, MM = Missing Value Source: NWS Daily Summary

Daily Weather History Graph

Daily Weather History Graph

Search for Another Location

Airport or City:

Trip Planner

Search our weather history database for the weather conditions in past years. The results will help you decide how hot, cold, wet, or windy it might be!

Date:

Astronomy

Feb. 15, 2014 Rise Set
Actual Time 7:38 AM EST 6:19 PM EST
Civil Twilight 7:10 AM EST 6:47 PM EST
Nautical Twilight 6:38 AM EST 7:19 PM EST
Astronomical Twilight 6:06 AM EST 7:51 PM EST
Moon 7:19 PM EST (2/15) 7:36 AM EST (2/15)
Length of Visible Light 11h 37m
Length of Day
10h 41m
Full, 100% of the Moon is Illuminated
Feb 15
Full
Feb 22
Last Quarter
Mar 1
New
Mar 8
First Quarter
Mar 16
Full

Hourly Weather History & Observations

Time (EST) Temp. Windchill Dew Point Humidity Pressure Visibility Wind Dir Wind Speed Gust Speed Precip Events Conditions
12:08 AM 19.4 °F 7.9 °F 17.6 °F 93% 29.84 in 10.0 mi NW 10.4 mph - N/A   Overcast
12:58 AM 19.0 °F 9.0 °F 17.1 °F 92% 29.91 in 10.0 mi NW 8.1 mph - N/A   Overcast
1:17 AM 19.4 °F 7.9 °F 17.6 °F 93% 29.86 in 10.0 mi NW 10.4 mph - N/A Snow Light Snow
1:29 AM 19.4 °F 7.2 °F 17.6 °F 93% 29.86 in 10.0 mi NW 11.5 mph - N/A   Overcast
1:31 AM 19.4 °F 6.6 °F 17.6 °F 93% 29.86 in 10.0 mi NW 12.7 mph - N/A Snow Light Snow
1:41 AM 19.4 °F 7.9 °F 17.6 °F 93% 29.86 in 10.0 mi NW 10.4 mph - N/A   Overcast
1:57 AM 19.4 °F 7.2 °F 17.6 °F 93% 29.87 in 10.0 mi WNW 11.5 mph - N/A Snow Light Snow
1:58 AM 19.6 °F 6.8 °F 17.6 °F 92% 29.92 in 10.0 mi WNW 12.7 mph - 0.00 in Snow Light Snow
2:11 AM 17.6 °F 5.0 °F 17.6 °F 100% 29.87 in 10.0 mi WNW 11.5 mph - N/A   Overcast
2:19 AM 17.6 °F 5.0 °F 15.8 °F 93% 29.88 in 10.0 mi WNW 11.5 mph - N/A Snow Light Snow
2:26 AM 17.6 °F 5.0 °F 15.8 °F 93% 29.88 in 10.0 mi WNW 11.5 mph - N/A   Overcast
2:27 AM 17.6 °F 5.0 °F 15.8 °F 93% 29.88 in 10.0 mi WNW 11.5 mph - N/A Snow Light Snow
2:44 AM 17.6 °F 5.7 °F 15.8 °F 93% 29.88 in 10.0 mi WNW 10.4 mph - N/A   Mostly Cloudy
2:49 AM 17.6 °F 5.7 °F 15.8 °F 93% 29.89 in 10.0 mi WNW 10.4 mph - N/A   Mostly Cloudy
2:53 AM 17.6 °F 5.7 °F 15.8 °F 93% 29.89 in 10.0 mi WNW 10.4 mph - N/A Snow Light Snow
2:58 AM 16.9 °F 5.5 °F 15.3 °F 93% 29.94 in 10.0 mi WNW 9.2 mph - 0.00 in Snow Light Snow
3:08 AM 15.8 °F 6.1 °F 15.8 °F 100% 29.89 in 10.0 mi WNW 6.9 mph - N/A   Overcast
3:13 AM 15.8 °F 4.2 °F 15.8 °F 100% 29.90 in 10.0 mi West 9.2 mph - N/A   Overcast
3:58 AM 14.7 °F 2.1 °F 12.9 °F 93% 29.97 in 10.0 mi WNW 10.4 mph - 0.00 in   Overcast
4:48 AM 12.2 °F -0.2 °F 10.4 °F 92% 29.96 in 10.0 mi West 9.2 mph - N/A   Overcast
4:58 AM 12.6 °F 2.2 °F 10.8 °F 92% 30.01 in 10.0 mi West 6.9 mph - N/A   Mostly Cloudy
5:08 AM 10.4 °F -3.3 °F 8.6 °F 92% 29.97 in 10.0 mi West 10.4 mph - N/A   Mostly Cloudy
5:23 AM 8.6 °F -4.7 °F 6.8 °F 92% 29.98 in 10.0 mi West 9.2 mph - N/A   Scattered Clouds
5:58 AM 8.2 °F -1.8 °F 6.3 °F 92% 30.04 in 10.0 mi West 5.8 mph - N/A   Scattered Clouds
6:03 AM 6.8 °F -4.8 °F 5.0 °F 92% 29.99 in 10.0 mi West 6.9 mph - N/A   Mostly Cloudy
6:58 AM 6.4 °F -5.2 °F 4.6 °F 92% 30.06 in 10.0 mi West 6.9 mph - N/A   Overcast
7:48 AM 3.2 °F -7.8 °F 1.4 °F 92% 30.02 in 10.0 mi West 5.8 mph - N/A   Scattered Clouds
7:58 AM 3.2 °F -7.8 °F 1.6 °F 93% 30.09 in 10.0 mi West 5.8 mph - N/A   Partly Cloudy
8:58 AM 0.5 °F -7.3 °F -1.3 °F 92% 30.10 in 10.0 mi WSW 3.5 mph - N/A   Clear
9:52 AM 5.0 °F -6.9 °F 1.4 °F 85% 30.05 in 10.0 mi West 6.9 mph - N/A   Partly Cloudy
9:58 AM 5.0 °F -6.9 °F 2.3 °F 89% 30.11 in 10.0 mi West 6.9 mph - N/A   Scattered Clouds
10:03 AM 5.0 °F -4.1 °F 3.2 °F 92% 30.05 in 10.0 mi West 4.6 mph - N/A   Mostly Cloudy
10:19 AM 6.8 °F -4.8 °F 3.2 °F 85% 30.06 in 10.0 mi West 6.9 mph - N/A   Overcast
10:30 AM 6.8 °F -7.8 °F 5.0 °F 92% 30.07 in 9.0 mi West 10.4 mph - N/A   Overcast
10:36 AM 8.6 °F -5.5 °F 5.0 °F 85% 30.07 in 8.0 mi West 10.4 mph - N/A Snow Light Snow
10:58 AM 8.4 °F -4.9 °F 5.5 °F 88% 30.13 in 7.0 mi WSW 9.2 mph - 0.00 in Snow Light Snow
11:08 AM 8.6 °F -3.7 °F 6.8 °F 92% 30.07 in 6.0 mi West 8.1 mph - N/A Snow Light Snow
11:13 AM 10.4 °F 0.8 °F 6.8 °F 85% 30.06 in 4.0 mi West 5.8 mph - N/A Snow Light Snow
11:18 AM 10.4 °F 2.2 °F 8.6 °F 92% 30.06 in 3.0 mi SW 4.6 mph - N/A Snow Light Snow
11:23 AM 10.4 °F 2.2 °F 6.8 °F 85% 30.07 in 5.0 mi WSW 4.6 mph - N/A Snow Light Snow
11:25 AM 10.4 °F 0.8 °F 8.6 °F 92% 30.07 in 6.0 mi WSW 5.8 mph - N/A   Overcast
11:33 AM 10.4 °F -1.5 °F 8.6 °F 92% 30.08 in 6.0 mi West 8.1 mph - N/A Snow Light Snow
11:38 AM 10.4 °F -3.3 °F 8.6 °F 92% 30.08 in 4.0 mi West 10.4 mph - N/A Snow Light Snow
11:58 AM 10.8 °F -2.0 °F 10.2 °F 98% 30.15 in 4.0 mi WSW 9.2 mph - 0.00 in Snow Light Snow
12:03 PM 10.4 °F -2.4 °F 10.4 °F 100% 30.09 in 5.0 mi WSW 9.2 mph - N/A Snow Light Snow
12:10 PM 10.4 °F -1.5 °F 10.4 °F 100% 30.09 in 9.0 mi West 8.1 mph - N/A   Overcast
12:25 PM 12.2 °F 1.7 °F 8.6 °F 85% 30.09 in 10.0 mi West 6.9 mph - N/A   Scattered Clouds
12:58 PM 12.7 °F 2.4 °F 9.3 °F 86% 30.14 in 10.0 mi West 6.9 mph - 0.00 in   Clear
1:02 PM 12.2 °F 2.9 °F 10.4 °F 92% 30.08 in 10.0 mi West 5.8 mph - N/A   Partly Cloudy
1:58 PM 15.6 °F 4.9 °F 11.5 °F 84% 30.12 in 10.0 mi SW 8.1 mph - N/A   Clear
2:58 PM 17.4 °F 6.2 °F 13.1 °F 83% 30.10 in 10.0 mi SW 9.2 mph - N/A   Clear
3:58 PM 17.1 °F 4.3 °F 11.3 °F 78% 30.13 in 10.0 mi SW 11.5 mph - N/A   Clear
4:58 PM 17.1 °F 6.6 °F 11.3 °F 78% 30.12 in 10.0 mi WSW 8.1 mph - N/A   Clear
5:58 PM 16.5 °F 6.9 °F 10.8 °F 78% 30.10 in 10.0 mi SW 6.9 mph - N/A   Clear
6:58 PM 16.0 °F - 10.9 °F 81% 30.08 in 10.0 mi SSE 2.3 mph - N/A   Clear
7:58 PM 16.7 °F 11.2 °F 11.8 °F 81% 30.09 in 10.0 mi SSE 3.5 mph - N/A   Clear
8:58 PM 16.9 °F 11.5 °F 12.2 °F 82% 30.08 in 10.0 mi East 3.5 mph - N/A   Clear
9:58 PM 17.6 °F 10.7 °F 13.3 °F 83% 30.08 in 10.0 mi SSE 4.6 mph - N/A   Clear
10:58 PM 18.1 °F 11.3 °F 14.0 °F 84% 30.07 in 10.0 mi SSE 4.6 mph - 0.00 in Snow Light Snow
11:13 PM 19.4 °F 9.5 °F 15.8 °F 86% 30.01 in 9.0 mi SSW 8.1 mph - N/A Snow Light Snow
11:18 PM 19.4 °F 9.5 °F 15.8 °F 86% 30.01 in 5.0 mi South 8.1 mph - N/A Snow Light Snow
11:23 PM 19.4 °F 9.5 °F 17.6 °F 93% 30.00 in 4.0 mi South 8.1 mph - N/A Snow Light Snow
11:28 PM 19.4 °F 10.4 °F 17.6 °F 93% 30.00 in 3.0 mi South 6.9 mph - N/A Snow Light Snow
11:38 PM 19.4 °F 10.4 °F 19.4 °F 100% 29.99 in 4.0 mi South 6.9 mph - N/A Snow Light Snow
11:43 PM 19.4 °F 10.4 °F 19.4 °F 100% 29.99 in 5.0 mi South 6.9 mph - N/A Snow Light Snow
11:53 PM 19.4 °F 10.4 °F 19.4 °F 100% 29.99 in 4.0 mi South 6.9 mph - N/A Snow Light Snow
11:58 PM 18.7 °F 9.5 °F 18.7 °F 100% 30.04 in 4.0 mi South 6.9 mph - 0.00 in Snow Light Snow